EW9439 Weather Reports


Display with metric or nautical units.
time (UTC)temp
F
wind
direction
speed
MPH
gust
MPH
rain 1hr
in
rain 24hr
in
rain mn
in
humidity
%
barometer
mb
20260504234555 72 87 0.0 0.0 0.00 0.00 0.00 44 1010.8
20260504233055 73 87 0.0 0.0 0.00 0.00 0.00 43 1010.9
20260504231622 73 87 0.0 0.0 0.00 0.00 0.00 44 1010.8
20260504230056 74 87 0.0 0.0 0.00 0.00 0.00 44 1010.9
20260504224504 75 87 0.0 0.0 0.00 0.00 0.00 42 1010.8
20260504223008 75 87 0.0 0.0 0.00 0.00 0.00 42 1010.9
20260504221536 75 157 0.0 0.0 0.00 0.00 0.00 39 1010.8
20260504220028 76 162 0.0 0.0 0.00 0.00 0.00 36 1010.9
20260504214546 76 172 0.0 1.0 0.00 0.00 0.00 38 1010.8
20260504213054 76 171 0.0 0.0 0.00 0.00 0.00 39 1010.8
20260504211553 76 167 0.0 6.0 0.00 0.00 0.00 40 1010.8
20260504210054 76 173 0.0 0.0 0.00 0.00 0.00 41 1010.9
20260504204554 77 169 0.0 0.0 0.00 0.00 0.00 41 1010.9
20260504204502 77 169 0.0 0.0 0.00 0.00 0.00 41 1010.9
20260504203052 77 180 0.0 0.0 0.00 0.00 0.00 39 1010.9
20260504201553 77 55 0.0 0.0 0.00 0.00 0.00 40 1011.2
20260504200052 77 348 0.0 0.0 0.00 0.00 0.00 42 1011.4
20260504194601 78 169 0.0 0.0 0.00 0.00 0.00 39 1011.6
20260504193052 77 160 0.0 0.0 0.00 0.00 0.00 42 1011.9
20260504191613 77 153 0.0 0.0 0.00 0.00 0.00 42 1012.0
20260504190002 75 66 0.0 0.0 0.00 0.00 0.00 44 1012.3
20260504184606 75 66 0.0 0.0 0.00 0.00 0.00 44 1012.4
20260504184513 75 66 0.0 0.0 0.00 0.00 0.00 44 1012.4
20260504183003 75 36 0.0 0.0 0.00 0.00 0.00 43 1012.5
20260504181506 75 235 0.0 0.0 0.00 0.00 0.00 42 1012.8
20260504180006 75 236 0.0 0.0 0.00 0.00 0.00 44 1013.0
20260504174507 75 188 0.0 0.0 0.00 0.00 0.00 46 1013.2
20260504173013 75 167 0.0 0.0 0.00 0.00 0.00 46 1013.4
20260504171507 75 185 0.0 0.0 0.00 0.00 0.00 46 1013.7
20260504081509 46 120 0.0 0.0 0.00 0.00 0.00 86 1014.6
20260504044536 50 120 0.0 0.0 0.00 0.00 0.00 76 1015.4
20260504043039 51 120 0.0 0.0 0.00 0.00 0.00 76 1015.3
20260504041535 51 120 0.0 0.0 0.00 0.00 0.00 74 1015.5
20260504040042 52 120 0.0 0.0 0.00 0.00 0.00 74 1015.5
20260504034535 52 120 0.0 0.0 0.00 0.00 0.00 73 1015.5
20260504033050 52 120 0.0 0.0 0.00 0.00 0.00 71 1015.7
20260504031554 53 120 0.0 0.0 0.00 0.00 0.00 70 1015.6
20260504030111 53 120 0.0 0.0 0.00 0.00 0.00 70 1015.6
20260504024554 54 120 0.0 0.0 0.00 0.00 0.00 68 1015.5
20260504023058 55 120 0.0 0.0 0.00 0.00 0.00 67 1015.4
20260504021522 55 120 0.0 0.0 0.00 0.00 0.00 67 1015.3
20260504020024 56 120 0.0 0.0 0.00 0.00 0.00 63 1015.0
20260504014524 57 120 0.0 0.0 0.00 0.00 0.00 62 1014.8
20260504013036 58 120 0.0 0.0 0.00 0.00 0.00 60 1014.7
20260504011534 59 120 0.0 0.0 0.00 0.00 0.00 58 1014.6
20260504010039 60 120 0.0 0.0 0.00 0.00 0.00 57 1014.5
20260504004558 61 120 0.0 0.0 0.00 0.00 0.00 54 1014.4
20260504003100 62 120 0.0 0.0 0.00 0.00 0.00 53 1014.2
20260504003002 62 120 0.0 0.0 0.00 0.00 0.00 53 1014.2
20260504001544 63 120 0.0 0.0 0.00 0.00 0.00 52 1014.2
20260504000104 64 120 0.0 0.0 0.00 0.00 0.00 53 1014.1